Photometre #855[NE_1.6_Dp] Loftus_MO AOT

File : 20220824_855.hum

24/08/2022,05:59:08,TEMP=18.0,BA=5.64,STAT.A,ExtBa=12.20
24/08/2022,06:03:34,TEMP=18.3,BA=5.60,STAT.A,ExtBa=12.20
24/08/2022,06:08:44,TEMP=18.6,BA=5.60,STAT.A,ExtBa=12.20
24/08/2022,06:14:51,TEMP=18.8,BA=5.56,STAT.A,ExtBa=12.20
24/08/2022,06:22:11,TEMP=19.1,BA=5.64,STAT.A,ExtBa=12.20
24/08/2022,06:31:11,TEMP=19.4,BA=5.64,STAT.A,ExtBa=12.20
24/08/2022,06:42:23,TEMP=19.6,BA=5.64,STAT.D,ExtBa=12.20
24/08/2022,06:44:22,TEMP=20.0,BA=5.64,STAT.B,ExtBa=12.20
24/08/2022,06:47:52,TEMP=19.9,BA=5.64,STAT.A,ExtBa=12.20
24/08/2022,06:53:52,TEMP=19.7,BA=5.60,STAT.A,ExtBa=12.20
24/08/2022,07:00:37,TEMP=19.6,BA=5.64,STAT.A,ExtBa=12.20
24/08/2022,07:08:17,TEMP=19.0,BA=5.64,STAT.A,ExtBa=12.20
24/08/2022,07:17:03,TEMP=18.8,BA=5.56,STAT.C,ExtBa=12.20
24/08/2022,07:27:12,TEMP=18.4,BA=5.64,STAT.A,ExtBa=12.20
24/08/2022,07:39:07,TEMP=18.0,BA=5.64,STAT.A,ExtBa=12.20
24/08/2022,07:51:23,TEMP=18.0,BA=5.64,STAT.D,ExtBa=12.20
24/08/2022,07:53:22,TEMP=18.5,BA=5.64,STAT.A,ExtBa=12.20
24/08/2022,08:06:23,TEMP=18.2,BA=5.64,STAT.D,ExtBa=12.20
24/08/2022,08:10:48,TEMP=18.4,BA=5.64,STAT.A,ExtBa=12.20
24/08/2022,08:24:23,TEMP=18.8,BA=5.64,STAT.D,ExtBa=12.20
24/08/2022,08:32:52,TEMP=19.0,BA=5.64,STAT.B,ExtBa=12.20
24/08/2022,08:36:31,TEMP=19.2,BA=5.64,STAT.D,ExtBa=12.20
24/08/2022,08:48:24,TEMP=19.4,BA=5.64,STAT.D,ExtBa=12.20
24/08/2022,08:51:32,TEMP=19.7,BA=5.60,STAT.D,ExtBa=12.20
24/08/2022,09:03:24,TEMP=19.9,BA=5.64,STAT.D,ExtBa=12.20
24/08/2022,09:06:33,TEMP=20.3,BA=5.64,STAT.F,ExtBa=12.20
24/08/2022,09:31:24,TEMP=23.1,BA=5.56,STAT.b=11.0
24/08/2022,09:31:59,TEMP=23.1,BA=5.56,STAT.b=11.0
24/08/2022,09:36:23,TEMP=22.9,BA=5.56,STAT.D,ExtBa=12.10
24/08/2022,09:38:22,TEMP=23.3,BA=5.56,STAT.D,ExtBa=12.10
24/08/2022,09:51:24,TEMP=22.1,BA=5.64,STAT.D,ExtBa=12.10
24/08/2022,09:53:26,TEMP=22.6,BA=5.64,STAT.D,ExtBa=12.10
24/08/2022,09:57:24,TEMP=22.7,BA=5.64,STAT.D,ExtBa=12.10
24/08/2022,10:00:24,TEMP=23.0,BA=5.64,STAT.D,ExtBa=12.10
24/08/2022,10:03:24,TEMP=23.1,BA=5.64,STAT.D,ExtBa=12.10
24/08/2022,10:06:24,TEMP=23.4,BA=5.64,STAT.D,ExtBa=12.10
24/08/2022,10:08:25,TEMP=23.9,BA=5.64,STAT.F,ExtBa=12.10
24/08/2022,10:18:15,TEMP=24.1,BA=5.52,STAT.b=11.0
24/08/2022,10:21:48,TEMP=23.4,BA=5.64,STAT.D,ExtBa=12.10
24/08/2022,10:33:24,TEMP=22.5,BA=5.60,STAT.D,ExtBa=12.10
24/08/2022,10:36:32,TEMP=22.7,BA=5.60,STAT.D,ExtBa=12.10
24/08/2022,10:48:24,TEMP=22.5,BA=5.60,STAT.D,ExtBa=12.10
24/08/2022,10:51:24,TEMP=22.7,BA=5.60,STAT.D,ExtBa=12.10
24/08/2022,10:53:22,TEMP=23.2,BA=5.60,STAT.D,ExtBa=12.10
24/08/2022,10:57:24,TEMP=23.2,BA=5.60,STAT.D,ExtBa=12.10
24/08/2022,11:00:24,TEMP=23.4,BA=5.60,STAT.D,ExtBa=12.10
24/08/2022,11:06:34,TEMP=22.8,BA=5.60,STAT.F,ExtBa=12.10
24/08/2022,11:18:24,TEMP=22.3,BA=5.60,STAT.D,ExtBa=12.10
24/08/2022,11:21:32,TEMP=22.3,BA=5.60,STAT.D,ExtBa=12.10
24/08/2022,11:33:24,TEMP=21.8,BA=5.60,STAT.D,ExtBa=12.10
24/08/2022,11:36:32,TEMP=22.1,BA=5.60,STAT.D,ExtBa=12.10
24/08/2022,11:48:24,TEMP=22.7,BA=5.60,STAT.D,ExtBa=12.10
24/08/2022,11:51:32,TEMP=22.9,BA=5.56,STAT.D,ExtBa=12.10
24/08/2022,12:03:24,TEMP=22.8,BA=5.60,STAT.D,ExtBa=12.10
24/08/2022,12:06:24,TEMP=23.2,BA=5.60,STAT.D,ExtBa=12.10
24/08/2022,12:08:24,TEMP=23.7,BA=5.60,STAT.F,ExtBa=12.10
24/08/2022,12:35:34,TEMP=25.6,BA=5.52,STAT.b=11.0
24/08/2022,12:37:13,TEMP=25.2,BA=5.52,STAT.D,ExtBa=12.10
24/08/2022,12:39:24,TEMP=25.3,BA=5.52,STAT.D,ExtBa=12.10
24/08/2022,12:42:24,TEMP=25.1,BA=5.48,STAT.D,ExtBa=12.10
24/08/2022,12:45:24,TEMP=25.0,BA=5.48,STAT.D,ExtBa=12.10
24/08/2022,12:48:24,TEMP=24.8,BA=5.48,STAT.D,ExtBa=12.10
24/08/2022,12:51:24,TEMP=24.8,BA=5.52,STAT.D,ExtBa=12.10
24/08/2022,12:53:22,TEMP=25.1,BA=5.52,STAT.D,ExtBa=12.10
24/08/2022,12:57:24,TEMP=25.0,BA=5.52,STAT.D,ExtBa=12.10
24/08/2022,13:00:24,TEMP=25.0,BA=5.60,STAT.D,ExtBa=12.10
24/08/2022,13:03:24,TEMP=25.0,BA=5.60,STAT.D,ExtBa=12.10
24/08/2022,13:06:24,TEMP=25.0,BA=5.60,STAT.D,ExtBa=12.10
24/08/2022,13:08:23,TEMP=25.2,BA=5.60,STAT.F,ExtBa=12.10
24/08/2022,13:33:38,TEMP=25.0,BA=5.48,STAT.D,ExtBa=12.10
24/08/2022,13:37:05,TEMP=24.6,BA=5.48,STAT.D,ExtBa=12.10
24/08/2022,13:39:24,TEMP=24.8,BA=5.48,STAT.D,ExtBa=12.10
24/08/2022,13:42:24,TEMP=24.8,BA=5.48,STAT.D,ExtBa=12.10
24/08/2022,13:45:24,TEMP=25.0,BA=5.48,STAT.D,ExtBa=12.10
24/08/2022,13:48:24,TEMP=25.3,BA=5.48,STAT.D,ExtBa=12.10
24/08/2022,13:51:24,TEMP=25.6,BA=5.52,STAT.D,ExtBa=12.10
24/08/2022,13:53:22,TEMP=26.0,BA=5.52,STAT.D,ExtBa=12.10
24/08/2022,13:57:24,TEMP=25.7,BA=5.52,STAT.D,ExtBa=12.10
24/08/2022,14:00:24,TEMP=25.7,BA=5.60,STAT.D,ExtBa=12.10
24/08/2022,14:03:24,TEMP=25.6,BA=5.60,STAT.D,ExtBa=12.10
24/08/2022,14:06:24,TEMP=25.6,BA=5.60,STAT.D,ExtBa=12.10
24/08/2022,14:08:24,TEMP=25.9,BA=5.60,STAT.F,ExtBa=12.10
24/08/2022,14:32:19,TEMP=26.2,BA=5.48,STAT.D,ExtBa=12.10
24/08/2022,14:36:24,TEMP=25.8,BA=5.48,STAT.D,ExtBa=12.10
24/08/2022,14:38:23,TEMP=26.1,BA=5.48,STAT.D,ExtBa=12.10
24/08/2022,14:42:24,TEMP=25.7,BA=5.48,STAT.D,ExtBa=12.10
24/08/2022,14:45:24,TEMP=25.7,BA=5.48,STAT.D,ExtBa=12.10
24/08/2022,14:48:24,TEMP=25.6,BA=5.48,STAT.D,ExtBa=12.10
24/08/2022,14:51:24,TEMP=25.6,BA=5.52,STAT.D,ExtBa=12.10
24/08/2022,14:53:23,TEMP=25.8,BA=5.52,STAT.D,ExtBa=12.10
24/08/2022,14:57:24,TEMP=25.4,BA=5.52,STAT.D,ExtBa=12.10
24/08/2022,15:00:24,TEMP=25.4,BA=5.60,STAT.D,ExtBa=12.10
24/08/2022,15:03:24,TEMP=25.4,BA=5.60,STAT.D,ExtBa=12.10
24/08/2022,15:06:24,TEMP=25.5,BA=5.60,STAT.D,ExtBa=12.10
24/08/2022,15:08:24,TEMP=25.7,BA=5.60,STAT.F,ExtBa=12.10
24/08/2022,15:32:40,TEMP=25.7,BA=5.44,STAT.D,ExtBa=12.00
24/08/2022,15:36:23,TEMP=25.0,BA=5.44,STAT.D,ExtBa=12.10
24/08/2022,15:38:23,TEMP=25.1,BA=5.44,STAT.D,ExtBa=12.10
24/08/2022,15:40:35,TEMP=25.0,BA=5.44,STAT.B,ExtBa=12.10
24/08/2022,15:51:23,TEMP=24.0,BA=5.56,STAT.D,ExtBa=12.10
24/08/2022,16:02:18,TEMP=23.6,BA=5.60,STAT.A,ExtBa=12.10
24/08/2022,16:06:23,TEMP=24.0,BA=5.60,STAT.D,ExtBa=12.10
24/08/2022,16:09:23,TEMP=24.4,BA=5.60,STAT.D,ExtBa=12.10
24/08/2022,16:12:23,TEMP=24.6,BA=5.48,STAT.D,ExtBa=12.10
24/08/2022,16:15:23,TEMP=24.6,BA=5.48,STAT.D,ExtBa=12.10
24/08/2022,16:18:23,TEMP=24.4,BA=5.48,STAT.D,ExtBa=12.10
24/08/2022,16:20:27,TEMP=24.6,BA=5.48,STAT.A,ExtBa=12.10
24/08/2022,16:24:23,TEMP=24.3,BA=5.48,STAT.D,ExtBa=12.10
24/08/2022,16:27:23,TEMP=24.5,BA=5.48,STAT.D,ExtBa=12.10
24/08/2022,16:30:23,TEMP=24.7,BA=5.60,STAT.D,ExtBa=12.10
24/08/2022,16:33:23,TEMP=24.8,BA=5.60,STAT.D,ExtBa=12.10
24/08/2022,16:35:24,TEMP=25.0,BA=5.60,STAT.A,ExtBa=12.10
24/08/2022,16:39:23,TEMP=24.8,BA=5.60,STAT.D,ExtBa=12.10
24/08/2022,16:42:23,TEMP=24.9,BA=5.48,STAT.D,ExtBa=12.10
24/08/2022,16:45:23,TEMP=24.6,BA=5.48,STAT.D,ExtBa=12.10
24/08/2022,16:47:24,TEMP=24.6,BA=5.48,STAT.A,ExtBa=12.10
24/08/2022,16:56:03,TEMP=22.9,BA=5.60,STAT.C,ExtBa=12.10
24/08/2022,17:19:53,TEMP=23.7,BA=5.48,STAT.A,ExtBa=12.00
24/08/2022,17:27:26,TEMP=23.1,BA=5.48,STAT.A,ExtBa=12.10
24/08/2022,17:29:36,TEMP=23.5,BA=5.48,STAT.A,ExtBa=12.00
24/08/2022,17:31:46,TEMP=23.5,BA=5.48,STAT.A,ExtBa=12.00
24/08/2022,17:33:57,TEMP=23.5,BA=5.48,STAT.B,ExtBa=12.00
24/08/2022,17:42:34,TEMP=23.0,BA=5.44,STAT.A,ExtBa=12.00
24/08/2022,17:45:23,TEMP=22.5,BA=5.44,STAT.D,ExtBa=12.00
24/08/2022,17:50:53,TEMP=21.7,BA=5.60,STAT.A,ExtBa=12.00
24/08/2022,17:58:13,TEMP=21.0,BA=5.60,STAT.A,ExtBa=12.00
24/08/2022,18:00:23,TEMP=21.2,BA=5.52,STAT.D,ExtBa=12.00
24/08/2022,18:03:22,TEMP=21.1,BA=5.52,STAT.D,ExtBa=12.00
24/08/2022,18:05:23,TEMP=21.3,BA=5.52,STAT.A,ExtBa=12.00
24/08/2022,18:09:22,TEMP=20.8,BA=5.52,STAT.D,ExtBa=12.00
24/08/2022,18:11:23,TEMP=21.0,BA=5.48,STAT.A,ExtBa=12.00
24/08/2022,18:17:51,TEMP=20.2,BA=5.48,STAT.A,ExtBa=12.00